Wind_Speed
8 6 6 6 5 6 8 9 10 11 12 12 14 15 17 18 19 19 20 18 18 17 18 17 16 16 17 18 19 21 22 23 25 26 27 28 29 30 31 32 32 33 33 34
6 5 6 4 5 5 6 7 7 8 10 11 11 12 14 15 16 15 15 15 15 15 15 15 16 16 17 18 19 21 23 24 26 27 29 30 31 32 33 33 33 33 33 33
6 5 5 5 6 5 5 6 6 6 5 6 8 8 9 10 11 12 12 11 11 12 13 14 14 15 17 18 20 22 24 26 27 29 30 31 32 33 33 33 33 33 32 32
6 6 5 5 5 5 6 6 5 5 5 5 4 5 6 5 6 8 8 8 8 9 10 12 14 16 17 19 21 23 25 27 28 30 30 31 31 32 32 33 33 33 33 32
6 6 5 5 5 7 7 6 5 6 5 4 5 6 5 4 2 3 5 6 7 8 10 12 14 16 18 20 22 23 25 26 27 28 29 29 30 30 30 31 31 32 32 32
7 7 5 6 6 7 7 6 5 5 3 2 4 6 6 4 2 2 2 3 6 9 12 14 15 17 18 20 22 23 24 25 26 27 28 28 28 29 29 30 30 31 32 33
8 8 7 6 6 6 6 6 5 4 3 2 3 5 6 3 2 0 3 5 8 10 12 15 16 17 18 20 21 23 24 25 26 27 28 28 28 29 29 30 30 31 32 33
8 9 8 6 5 6 6 7 6 5 4 3 3 4 5 4 3 4 6 8 10 12 13 14 15 16 18 20 22 24 25 26 27 28 29 29 29 29 30 31 31 32 33 33
9 9 9 7 6 6 7 7 7 7 6 4 3 3 5 6 7 8 9 10 11 12 13 14 15 17 19 21 24 25 27 28 29 29 30 30 30 31 32 33 34 34 34 35
9 8 8 7 7 7 8 8 8 9 8 6 3 4 5 6 8 10 11 12 12 13 13 14 16 18 21 24 26 27 29 30 31 31 31 32 33 33 34 35 36 36 36 36
9 8 8 8 8 8 8 9 9 10 9 8 5 6 6 8 9 11 13 13 14 14 14 16 18 21 23 26 28 29 30 32 32 33 33 34 35 36 37 37 38 38 38 38
9 9 9 9 9 9 10 10 11 10 9 9 8 8 8 10 11 13 14 15 15 16 17 19 21 23 25 27 29 31 32 33 34 35 35 36 37 38 38 39 40 40 39 39
10 10 10 10 11 11 11 12 12 12 10 10 10 10 11 12 13 15 16 17 17 18 19 21 23 25 27 29 31 32 34 35 36 37 37 38 39 39 40 41 41 41 40 40
11 11 11 11 12 13 13 14 14 13 12 11 11 12 13 14 16 17 18 19 19 20 21 23 24 26 28 30 32 34 35 36 37 38 39 39 40 41 41 42 42 42 41 41
11 11 12 12 12 12 13 13 14 13 12 12 12 13 15 17 18 19 20 21 21 21 23 24 26 27 29 31 33 35 37 38 39 39 40 41 42 42 43 43 43 43 42 41
12 12 12 12 12 12 12 12 13 12 13 13 14 16 18 19 20 21 21 22 22 22 24 25 26 28 31 33 35 37 38 39 40 40 41 42 43 43 44 44 44 44 43 42
12 12 12 12 13 13 12 12 12 12 13 15 16 18 19 21 21 22 22 22 22 23 24 26 28 30 32 34 37 38 39 40 41 41 42 43 43 44 44 45 45 44 44 43
13 13 13 12 13 13 11 12 11 12 13 15 17 19 21 22 22 22 22 23 23 24 26 27 29 31 34 36 38 39 40 41 41 42 43 43 44 44 45 45 45 45 44 43
14 14 13 13 12 11 11 12 12 13 14 16 18 20 21 22 22 22 23 23 24 26 27 28 30 33 35 37 38 40 41 41 42 43 44 44 44 45 46 46 46 45 44 43
14 13 14 14 14 11 10 12 13 14 14 17 19 21 22 22 23 23 24 25 26 27 28 30 32 34 36 38 39 40 41 42 43 43 44 45 45 46 46 47 46 45 44 43
16 16 16 16 16 13 14 14 14 16 17 18 20 21 22 23 24 24 25 26 27 28 30 31 34 36 37 39 40 40 42 43 43 44 45 46 47 47 47 47 46 45 44 43
18 18 19 19 18 17 17 18 18 19 20 21 22 23 24 25 25 26 27 28 29 30 32 33 35 37 38 39 40 41 42 44 45 46 46 47 47 48 47 46 46 45 43 42
21 22 22 21 20 20 21 21 22 22 23 24 25 26 26 26 27 27 28 29 30 32 33 35 37 38 40 40 41 42 43 45 46 47 48 48 48 48 47 46 45 44 43 41
23 24 25 25 24 24 24 24 25 26 26 26 27 28 28 28 29 29 30 31 32 34 35 37 38 40 41 42 42 44 45 46 47 49 49 49 49 48 47 46 45 43 41 40
23 26 28 28 27 28 26 26 27 27 28 28 29 29 30 30 31 31 32 33 34 35 37 38 39 41 42 43 44 46 47 48 49 50 50 50 48 47 46 45 44 42 40 39
25 29 30 30 29 30 28 28 29 29 29 29 30 31 31 32 32 33 34 34 35 37 38 40 41 42 43 44 46 48 49 50 51 51 50 49 47 46 44 44 42 41 39 39
Wind_Direction
344 330 323 312 296 275 270 265 267 273 278 280 280 280 281 277 274 272 272 272 278 286 291 294 299 302 303 305 305 305 307 308 309 309 309 309 308 307 305 303 301 299 298 296
342 324 317 312 305 293 291 282 282 284 285 286 288 290 285 274 269 266 264 266 275 286 293 296 299 303 305 307 310 311 311 312 313 312 312 311 310 309 307 305 303 301 299 297
346 331 308 297 303 306 316 316 314 309 316 297 293 294 289 276 259 254 255 262 275 284 293 299 302 305 309 312 314 315 315 315 314 313 312 311 310 309 307 305 303 302 300 298
341 327 313 305 308 314 323 332 339 343 339 336 321 320 323 293 254 248 249 260 280 288 297 302 305 307 311 314 315 315 315 314 313 313 312 310 308 307 306 304 303 302 301 299
337 330 319 307 307 312 317 320 333 334 335 1 11 5 8 348 274 238 228 250 271 286 298 303 305 307 311 313 314 314 314 313 313 313 313 312 311 310 308 307 306 304 303 301
326 315 311 321 321 324 326 326 324 327 325 1 11 10 20 34 73 148 201 256 279 291 296 299 302 304 308 311 312 314 315 316 316 316 316 316 316 316 314 313 311 309 307 305
316 305 305 309 313 331 334 331 329 330 325 327 350 5 14 25 49 317 283 285 288 291 294 296 299 303 309 313 317 319 321 322 322 323 323 323 322 322 321 319 317 314 311 309
305 294 296 299 302 318 335 335 339 344 339 310 299 331 344 329 303 289 288 290 294 297 299 300 304 309 316 321 325 327 328 329 330 330 330 329 327 326 325 323 320 318 315 312
291 288 289 287 292 303 319 330 336 339 339 328 306 298 304 291 284 284 290 295 299 303 304 307 313 319 325 329 331 333 335 336 335 334 333 332 330 329 327 326 324 322 319 315
284 281 283 286 284 291 301 314 322 332 336 341 331 311 299 278 279 285 293 301 305 309 312 317 323 328 331 334 336 338 339 339 337 335 333 333 332 331 330 328 326 323 321 318
283 277 279 285 286 287 292 302 309 317 323 326 331 326 301 292 291 296 301 307 311 316 321 326 331 334 336 338 339 340 339 337 336 335 333 333 332 331 330 329 327 325 322 319
285 277 278 281 281 281 285 293 301 308 314 318 321 326 311 303 303 305 308 312 317 324 329 333 336 337 338 339 340 339 337 336 335 334 334 332 332 331 330 329 327 326 323 320
287 281 279 274 269 274 281 289 293 299 306 313 319 322 316 310 310 313 316 320 325 329 333 335 336 336 338 338 338 338 337 336 335 334 333 332 331 330 330 329 327 326 323 321
283 279 278 276 272 275 278 284 287 290 300 309 315 317 315 313 314 317 321 324 328 332 333 334 334 335 336 337 337 336 336 335 334 333 332 332 331 330 329 329 328 326 324 322
274 275 279 281 280 279 279 277 279 285 295 304 310 312 312 313 316 320 324 326 329 330 331 332 332 334 335 336 336 335 334 334 333 333 332 332 331 330 329 329 327 325 324 322
271 274 279 284 287 289 288 283 283 288 295 299 304 307 309 313 316 320 323 325 326 327 328 329 331 333 334 334 334 334 333 333 333 332 332 332 331 330 329 329 327 325 323 321
271 272 274 280 287 293 294 292 292 293 294 296 299 303 307 311 315 319 321 323 324 325 326 327 330 331 332 332 332 332 332 332 332 332 332 332 331 330 329 328 327 325 323 321
273 271 272 278 285 293 296 293 295 297 299 298 300 303 307 311 314 317 318 320 322 323 325 327 328 329 330 330 330 330 331 331 331 331 331 331 331 330 330 328 327 325 324 322
274 271 273 277 284 293 291 291 294 298 301 300 302 303 306 309 311 313 316 319 321 322 323 325 327 327 328 328 328 329 330 330 330 330 330 330 330 330 329 329 327 326 325 323
271 269 276 279 285 290 292 291 296 298 301 300 300 301 304 308 311 315 317 319 320 321 322 323 324 325 326 327 327 328 329 330 330 330 330 330 329 329 328 328 327 326 326 324
269 271 276 280 283 290 294 297 299 303 303 301 301 304 308 312 314 316 317 318 318 319 320 321 322 323 325 326 327 327 328 329 330 330 329 329 328 328 328 328 327 327 326 325
267 271 275 279 283 291 294 299 300 301 302 304 305 307 309 311 313 314 314 315 316 317 318 320 321 322 324 325 326 327 328 329 330 330 329 329 328 328 328 328 328 328 327 327
267 271 275 279 284 290 294 297 299 300 303 304 304 306 308 309 310 311 312 313 314 315 317 319 320 322 323 325 326 327 328 329 330 330 329 329 329 328 328 328 328 329 329 328
267 273 276 280 284 288 290 293 296 298 300 301 302 304 305 306 307 308 309 311 313 315 317 318 320 321 323 324 326 327 328 328 329 329 328 328 329 329 328 328 329 329 329 329
268 270 272 276 280 282 285 288 291 294 296 297 298 300 301 302 304 305 307 309 311 314 316 318 319 321 323 324 326 326 327 327 327 327 327 328 328 329 329 329 330 330 330 330
263 266 269 273 277 280 284 287 289 291 293 293 294 296 297 299 300 302 305 308 311 313 315 317 319 320 321 323 325 325 325 326 326 327 327 328 328 329 329 330 331 331 331 332
Height
5866 5866 5865 5864 5863 5863 5862 5861 5861 5861 5861 5860 5860 5859 5859 5857 5857 5857 5857 5857 5857 5858 5858 5857 5856 5855 5854 5852 5851 5850 5848 5846 5844 5841 5838 5836 5833 5830 5828 5825 5822 5820 5818 5816
5868 5866 5865 5864 5864 5863 5862 5861 5861 5860 5859 5858 5857 5856 5854 5852 5852 5852 5853 5854 5854 5854 5854 5854 5853 5852 5850 5849 5847 5846 5844 5841 5838 5836 5833 5829 5826 5823 5820 5817 5815 5812 5810 5807
5867 5867 5865 5865 5864 5863 5862 5861 5860 5859 5858 5856 5855 5854 5851 5849 5848 5849 5850 5851 5851 5852 5852 5851 5850 5849 5847 5846 5844 5841 5839 5836 5833 5830 5827 5823 5820 5816 5813 5810 5807 5805 5802 5799
5867 5866 5865 5864 5863 5863 5862 5861 5860 5859 5857 5856 5854 5852 5849 5847 5846 5847 5848 5849 5849 5850 5850 5849 5848 5846 5845 5843 5840 5838 5835 5832 5829 5825 5821 5818 5814 5810 5807 5803 5800 5797 5794 5791
5867 5866 5865 5864 5863 5862 5862 5861 5860 5859 5857 5856 5854 5852 5850 5846 5845 5846 5847 5848 5849 5849 5848 5847 5846 5844 5842 5840 5838 5835 5832 5828 5824 5820 5816 5812 5808 5804 5800 5796 5792 5789 5785 5782
5867 5866 5865 5863 5862 5862 5861 5860 5859 5858 5857 5856 5854 5853 5851 5848 5847 5847 5848 5848 5848 5848 5847 5846 5844 5843 5840 5838 5835 5831 5828 5824 5819 5815 5810 5806 5801 5797 5792 5788 5784 5781 5777 5774
5866 5865 5864 5863 5862 5861 5861 5860 5859 5858 5856 5856 5854 5853 5852 5850 5849 5849 5848 5848 5847 5847 5846 5844 5842 5840 5838 5835 5831 5827 5823 5818 5813 5808 5803 5799 5794 5790 5785 5781 5777 5773 5769 5765
5865 5864 5863 5862 5861 5860 5860 5859 5859 5858 5856 5855 5854 5853 5853 5851 5849 5848 5848 5847 5846 5845 5843 5842 5839 5837 5834 5830 5826 5822 5817 5812 5807 5802 5797 5792 5788 5783 5779 5774 5770 5766 5761 5757
5863 5863 5862 5861 5860 5860 5859 5858 5857 5856 5855 5854 5853 5853 5852 5850 5849 5847 5846 5845 5844 5843 5841 5838 5836 5832 5829 5825 5820 5816 5810 5805 5800 5796 5791 5786 5781 5777 5772 5767 5762 5757 5753 5748
5861 5861 5860 5860 5859 5859 5858 5857 5856 5855 5854 5853 5852 5851 5850 5848 5847 5845 5844 5843 5841 5839 5837 5834 5831 5827 5823 5819 5814 5809 5804 5800 5795 5790 5785 5780 5775 5770 5765 5760 5754 5749 5744 5739
5859 5859 5859 5858 5857 5857 5857 5856 5854 5853 5852 5851 5850 5851 5848 5846 5844 5843 5841 5840 5838 5835 5833 5829 5826 5822 5818 5813 5808 5804 5799 5794 5790 5785 5779 5774 5769 5763 5758 5752 5746 5741 5735 5730
5857 5857 5856 5856 5855 5854 5854 5854 5853 5852 5851 5849 5848 5850 5845 5843 5842 5840 5838 5836 5833 5831 5827 5824 5820 5816 5812 5807 5803 5798 5794 5789 5784 5779 5773 5767 5762 5756 5750 5744 5738 5732 5726 5721
5855 5855 5854 5853 5854 5853 5852 5851 5850 5849 5848 5847 5845 5847 5842 5840 5838 5836 5834 5831 5828 5825 5822 5818 5815 5811 5807 5802 5798 5793 5788 5783 5778 5772 5767 5761 5755 5748 5742 5736 5730 5724 5717 5711
5852 5852 5852 5851 5850 5849 5849 5848 5847 5846 5845 5844 5843 5841 5839 5836 5834 5832 5829 5826 5823 5820 5817 5813 5810 5806 5802 5797 5793 5788 5783 5777 5772 5766 5760 5754 5747 5741 5734 5728 5721 5714 5708 5701
5850 5849 5848 5847 5846 5846 5845 5845 5843 5842 5842 5841 5839 5837 5835 5832 5830 5827 5824 5821 5818 5815 5812 5809 5805 5801 5797 5792 5787 5782 5777 5771 5765 5759 5753 5746 5740 5733 5726 5719 5712 5705 5698 5692
5847 5846 5845 5844 5843 5842 5842 5841 5839 5839 5838 5837 5835 5833 5831 5828 5825 5822 5819 5816 5813 5811 5807 5804 5800 5796 5792 5787 5782 5776 5771 5765 5759 5752 5746 5739 5732 5725 5718 5710 5703 5696 5689 5682
5843 5843 5842 5842 5841 5840 5839 5837 5836 5835 5834 5833 5831 5830 5826 5823 5820 5818 5815 5812 5809 5806 5803 5799 5795 5791 5786 5781 5776 5770 5765 5758 5752 5745 5738 5732 5724 5717 5709 5702 5694 5687 5679 5672
5840 5839 5839 5838 5839 5837 5838 5834 5833 5832 5830 5828 5826 5824 5821 5819 5816 5813 5810 5807 5804 5801 5798 5794 5790 5785 5781 5776 5770 5764 5758 5752 5745 5738 5731 5724 5716 5709 5701 5693 5685 5677 5670 5662
5836 5836 5835 5835 5834 5834 5833 5831 5829 5828 5827 5824 5822 5819 5817 5814 5811 5809 5806 5803 5799 5796 5792 5788 5784 5780 5775 5770 5764 5758 5752 5745 5738 5731 5723 5716 5708 5701 5693 5685 5676 5668 5660 5653
5832 5832 5832 5831 5830 5830 5831 5828 5826 5825 5823 5820 5817 5814 5812 5809 5806 5804 5800 5797 5794 5790 5787 5783 5778 5774 5769 5763 5757 5751 5745 5738 5731 5723 5716 5708 5700 5692 5684 5676 5668 5659 5651 5643
5828 5828 5828 5827 5826 5826 5825 5823 5822 5821 5818 5815 5812 5809 5806 5803 5801 5798 5795 5791 5788 5785 5781 5777 5772 5768 5762 5757 5751 5744 5738 5731 5724 5716 5708 5700 5692 5684 5676 5668 5659 5651 5643 5635
5823 5823 5822 5822 5821 5822 5819 5817 5816 5814 5812 5809 5806 5803 5801 5798 5795 5792 5789 5786 5782 5779 5775 5771 5766 5761 5756 5750 5744 5737 5731 5724 5716 5709 5701 5693 5684 5676 5668 5659 5651 5642 5634 5626
5817 5817 5816 5816 5817 5815 5813 5811 5810 5807 5805 5803 5800 5798 5795 5792 5789 5786 5783 5779 5776 5772 5768 5763 5759 5753 5748 5742 5736 5730 5723 5716 5709 5701 5693 5685 5676 5667 5659 5651 5642 5634 5626 5618
5811 5810 5809 5808 5809 5808 5806 5805 5803 5801 5799 5797 5794 5792 5789 5786 5783 5780 5776 5773 5769 5765 5760 5756 5751 5746 5740 5734 5728 5722 5715 5708 5701 5693 5685 5677 5668 5659 5651 5642 5634 5626 5619 5611
5806 5803 5801 5801 5801 5800 5799 5798 5796 5794 5792 5790 5788 5785 5782 5779 5776 5772 5769 5765 5761 5757 5752 5748 5743 5738 5732 5726 5720 5714 5707 5700 5692 5685 5677 5669 5660 5652 5643 5635 5626 5619 5611 5603
5798 5795 5794 5793 5794 5792 5792 5791 5789 5787 5785 5783 5780 5778 5775 5771 5768 5765 5761 5757 5753 5749 5744 5739 5734 5729 5724 5718 5712 5705 5699 5692 5684 5676 5668 5660 5652 5644 5636 5628 5620 5611 5604 5597